{"data":{"norad_id":56201,"intl_designator":"2023-054Z","name":"NUSAT-39 (TIKVAH ALPER)","alt_names":[],"object_type":"PAYLOAD","status":"ACTIVE","operator":null,"country":"ARGN","launch_date":"2023-04-15","launch_site_code":"AFWTR","launch_vehicle":null,"mission":null,"orbit_class":"UNKNOWN","rcs_meters":null,"size_class":null,"mass_kg":null,"dimensions":null,"purposes":[],"wikipedia_slug":null,"has_3d_model":false,"image_url":null,"decayed_at":null,"tle_current":{"epoch":"2026-05-25T04:43:07.658688Z","epoch_age_seconds":68231,"freshness":"FRESH","line1":"1 56201U 23054Z   26145.19661642  .00025040  00000+0  52616-3 0  9994","line2":"2 56201  97.3144  54.7505 0007279 112.7655 247.4363 15.45298391174909","mean_motion":15.45298391,"eccentricity":0.0007279,"inclination_deg":97.3144,"raan_deg":54.7505,"arg_perigee_deg":112.7655,"mean_anomaly_deg":247.4363,"bstar":0.00052616,"rev_number":17490,"period_min":93.185886194325,"perigee_km":425.54544240437,"apogee_km":435.45745826036,"semimajor_km":6808.6384503324,"source":"CELESTRAK","updated_at":"2026-05-25T13:37:59.398551Z"}}}